| time (UTC) | temp F | wind direction | speed knots | gust knots | rain 1hr in | rain 24hr in | rain mn in | humidity % | barometer mb |
| 20260508182057 | 81 | 56 | 9.6 | 14.8 | 0.00 | 0.22 | 0.00 | 55 | 1011.4 |
| 20260508181557 | 82 | 83 | 7.0 | 15.6 | 0.00 | 0.22 | 0.00 | 56 | 1011.4 |
| 20260508181056 | 81 | 108 | 7.8 | 15.6 | 0.00 | 0.22 | 0.00 | 55 | 1011.4 |
| 20260508180556 | 81 | 105 | 7.8 | 13.0 | 0.00 | 0.22 | 0.00 | 56 | 1011.4 |
| 20260508180114 | 81 | 88 | 9.6 | 15.6 | 0.00 | 0.22 | 0.00 | 58 | 1011.5 |
| 20260508175554 | 81 | 360 | 8.7 | 15.6 | 0.00 | 0.22 | 0.00 | 57 | 1011.5 |
| 20260508175054 | 81 | 132 | 7.8 | 12.2 | 0.00 | 0.22 | 0.00 | 57 | 1011.6 |
| 20260508174605 | 81 | 119 | 7.8 | 13.0 | 0.00 | 0.22 | 0.00 | 58 | 1011.6 |
| 20260508174052 | 81 | 360 | 7.0 | 13.0 | 0.00 | 0.22 | 0.00 | 58 | 1011.7 |
| 20260508173551 | 81 | 126 | 8.7 | 13.0 | 0.00 | 0.22 | 0.00 | 60 | 1011.8 |
| 20260508173050 | 80 | 360 | 7.0 | 13.9 | 0.00 | 0.22 | 0.00 | 60 | 1011.8 |
| 20260508172650 | 80 | 81 | 8.7 | 13.9 | 0.00 | 0.22 | 0.00 | 59 | 1011.9 |
| 20260508172049 | 80 | 119 | 8.7 | 13.9 | 0.00 | 0.22 | 0.00 | 59 | 1011.9 |
| 20260508171549 | 80 | 360 | 8.7 | 13.0 | 0.00 | 0.22 | 0.00 | 58 | 1012.0 |
| 20260508171053 | 80 | 133 | 7.0 | 13.0 | 0.00 | 0.22 | 0.00 | 58 | 1012.0 |
| 20260508170546 | 80 | 89 | 8.7 | 13.0 | 0.00 | 0.22 | 0.00 | 57 | 1012.1 |
| 20260508170045 | 80 | 69 | 8.7 | 13.0 | 0.00 | 0.22 | 0.00 | 58 | 1012.1 |
| 20260508165546 | 80 | 75 | 7.8 | 12.2 | 0.00 | 0.22 | 0.00 | 59 | 1012.0 |
| 20260508165042 | 80 | 100 | 6.1 | 13.0 | 0.00 | 0.22 | 0.00 | 61 | 1012.1 |
| 20260508164543 | 79 | 101 | 7.8 | 14.8 | 0.00 | 0.22 | 0.00 | 62 | 1012.2 |
| 20260508164040 | 78 | 103 | 8.7 | 16.5 | 0.00 | 0.22 | 0.00 | 62 | 1012.2 |
| 20260508163538 | 78 | 61 | 9.6 | 16.5 | 0.00 | 0.22 | 0.00 | 61 | 1012.4 |
| 20260508163040 | 78 | 85 | 9.6 | 15.6 | 0.00 | 0.22 | 0.00 | 62 | 1012.3 |
| 20260508162637 | 78 | 103 | 9.6 | 15.6 | 0.00 | 0.22 | 0.00 | 62 | 1012.3 |
| 20260508162036 | 78 | 106 | 8.7 | 15.6 | 0.00 | 0.22 | 0.00 | 62 | 1012.5 |
| 20260508161535 | 78 | 62 | 11.3 | 15.6 | 0.00 | 0.22 | 0.00 | 61 | 1012.4 |
| 20260508161033 | 79 | 56 | 7.8 | 14.8 | 0.00 | 0.22 | 0.00 | 60 | 1012.4 |
| 20260508160533 | 78 | 93 | 7.8 | 18.2 | 0.00 | 0.22 | 0.00 | 63 | 1012.5 |
| 20260508160030 | 77 | 113 | 10.4 | 23.5 | 0.00 | 0.22 | 0.00 | 64 | 1012.5 |
| 20260508155528 | 77 | 115 | 13.0 | 21.7 | 0.00 | 0.22 | 0.00 | 65 | 1012.5 |
| 20260508155027 | 76 | 126 | 12.2 | 20.9 | 0.00 | 0.22 | 0.00 | 65 | 1012.5 |
| 20260508154525 | 76 | 117 | 13.9 | 25.2 | 0.00 | 0.22 | 0.00 | 66 | 1012.6 |
| 20260508154023 | 76 | 117 | 12.2 | 25.2 | 0.00 | 0.22 | 0.00 | 66 | 1012.6 |
| 20260508153523 | 76 | 129 | 11.3 | 20.0 | 0.00 | 0.22 | 0.00 | 66 | 1012.6 |
| 20260508153022 | 76 | 132 | 13.9 | 20.0 | 0.00 | 0.22 | 0.00 | 65 | 1012.7 |
| 20260508152521 | 76 | 121 | 10.4 | 18.2 | 0.00 | 0.22 | 0.00 | 67 | 1012.6 |
| 20260508152021 | 76 | 119 | 9.6 | 20.9 | 0.00 | 0.22 | 0.00 | 67 | 1012.6 |
| 20260508151516 | 75 | 115 | 12.2 | 20.9 | 0.00 | 0.22 | 0.00 | 66 | 1012.7 |
| 20260508151014 | 76 | 147 | 12.2 | 22.6 | 0.00 | 0.22 | 0.00 | 67 | 1012.6 |
| 20260508150515 | 76 | 105 | 9.6 | 21.7 | 0.00 | 0.22 | 0.00 | 66 | 1012.7 |
| 20260508150019 | 76 | 99 | 11.3 | 16.5 | 0.00 | 0.22 | 0.00 | 65 | 1012.7 |
| 20260508145511 | 76 | 94 | 7.0 | 21.7 | 0.00 | 0.22 | 0.00 | 67 | 1012.8 |
| 20260508145011 | 75 | 136 | 10.4 | 21.7 | 0.00 | 0.22 | 0.00 | 66 | 1012.8 |
| 20260508144509 | 76 | 123 | 8.7 | 20.9 | 0.00 | 0.22 | 0.00 | 65 | 1012.6 |
| 20260508144007 | 76 | 120 | 8.7 | 17.4 | 0.00 | 0.22 | 0.00 | 65 | 1012.6 |
| 20260508143505 | 76 | 141 | 8.7 | 17.4 | 0.00 | 0.22 | 0.00 | 65 | 1012.6 |
| 20260508143004 | 76 | 118 | 7.8 | 17.4 | 0.00 | 0.22 | 0.00 | 66 | 1012.7 |
| 20260508142503 | 75 | 151 | 6.1 | 17.4 | 0.00 | 0.22 | 0.00 | 66 | 1012.7 |
| 20260508142002 | 75 | 128 | 6.1 | 15.6 | 0.00 | 0.22 | 0.00 | 68 | 1012.7 |
| 20260508141600 | 74 | 161 | 6.1 | 15.6 | 0.00 | 0.22 | 0.00 | 68 | 1012.6 |
| 20260508141059 | 74 | 138 | 7.8 | 16.5 | 0.00 | 0.22 | 0.00 | 68 | 1012.6 |
| 20260508140559 | 74 | 108 | 9.6 | 20.0 | 0.00 | 0.22 | 0.00 | 68 | 1012.6 |
| 20260508140106 | 74 | 103 | 11.3 | 20.0 | 0.00 | 0.22 | 0.00 | 68 | 1012.5 |
| 20260508135554 | 74 | 104 | 8.7 | 15.6 | 0.00 | 0.22 | 0.00 | 67 | 1012.3 |
| 20260508135054 | 74 | 140 | 9.6 | 14.8 | 0.00 | 0.22 | 0.00 | 67 | 1012.5 |
| 20260508134600 | 74 | 105 | 7.8 | 14.8 | 0.00 | 0.22 | 0.00 | 68 | 1012.4 |
| 20260508134050 | 74 | 117 | 6.1 | 18.2 | 0.00 | 0.22 | 0.00 | 67 | 1012.3 |
| 20260508133549 | 74 | 116 | 7.8 | 17.4 | 0.00 | 0.22 | 0.00 | 66 | 1012.1 |
| 20260508133048 | 74 | 142 | 7.8 | 15.6 | 0.00 | 0.22 | 0.00 | 64 | 1012.3 |
| 20260508132549 | 74 | 117 | 8.7 | 13.9 | 0.00 | 0.22 | 0.00 | 64 | 1012.1 |
| 20260508132045 | 73 | 72 | 6.1 | 13.9 | 0.00 | 0.22 | 0.00 | 64 | 1012.1 |
| 20260508131545 | 73 | 107 | 7.0 | 13.9 | 0.00 | 0.22 | 0.00 | 65 | 1011.9 |
| 20260508131042 | 72 | 128 | 7.0 | 15.6 | 0.00 | 0.22 | 0.00 | 66 | 1011.9 |
| 20260508130540 | 72 | 144 | 7.0 | 15.6 | 0.00 | 0.22 | 0.00 | 68 | 1011.9 |
| 20260508130040 | 71 | 78 | 5.2 | 14.8 | 0.00 | 0.22 | 0.00 | 68 | 1011.8 |
| 20260508125539 | 72 | 88 | 7.8 | 13.9 | 0.00 | 0.22 | 0.00 | 69 | 1011.9 |
| 20260508125038 | 71 | 118 | 5.2 | 13.0 | 0.00 | 0.22 | 0.00 | 68 | 1011.7 |
| 20260508124537 | 71 | 124 | 7.0 | 13.0 | 0.00 | 0.22 | 0.00 | 68 | 1011.7 |
| 20260508124035 | 71 | 102 | 5.2 | 13.9 | 0.00 | 0.22 | 0.00 | 68 | 1011.7 |
| 20260508123534 | 70 | 132 | 7.0 | 14.8 | 0.00 | 0.22 | 0.00 | 69 | 1011.7 |
| 20260508123033 | 70 | 116 | 6.1 | 14.8 | 0.00 | 0.22 | 0.00 | 70 | 1011.6 |
| 20260508122531 | 70 | 119 | 7.8 | 13.0 | 0.00 | 0.22 | 0.00 | 71 | 1011.5 |
| 20260508122030 | 69 | 121 | 7.8 | 13.0 | 0.00 | 0.22 | 0.00 | 72 | 1011.5 |
| 20260508121528 | 69 | 132 | 7.0 | 11.3 | 0.00 | 0.22 | 0.00 | 73 | 1011.4 |
| 20260508121027 | 69 | 97 | 6.1 | 10.4 | 0.00 | 0.22 | 0.00 | 74 | 1011.6 |
| 20260508120525 | 68 | 360 | 7.8 | 10.4 | 0.00 | 0.22 | 0.00 | 74 | 1011.6 |
| 20260508120033 | 68 | 120 | 6.1 | 13.0 | 0.00 | 0.22 | 0.00 | 75 | 1011.5 |
| 20260508115523 | 68 | 122 | 6.1 | 14.8 | 0.00 | 0.22 | 0.00 | 75 | 1011.5 |
| 20260508115020 | 67 | 123 | 7.8 | 14.8 | 0.00 | 0.22 | 0.00 | 75 | 1011.5 |
| 20260508114519 | 67 | 105 | 6.1 | 13.9 | 0.00 | 0.22 | 0.00 | 76 | 1011.4 |
| 20260508114018 | 67 | 114 | 7.8 | 13.0 | 0.00 | 0.22 | 0.00 | 76 | 1011.5 |
| 20260508113517 | 67 | 105 | 7.0 | 14.8 | 0.00 | 0.22 | 0.00 | 75 | 1011.5 |
| 20260508113016 | 67 | 92 | 8.7 | 14.8 | 0.00 | 0.22 | 0.00 | 75 | 1011.6 |
| 20260508112517 | 67 | 112 | 8.7 | 14.8 | 0.00 | 0.22 | 0.00 | 76 | 1011.6 |
| 20260508112013 | 66 | 98 | 9.6 | 13.9 | 0.00 | 0.22 | 0.00 | 77 | 1011.5 |
| 20260508111516 | 66 | 156 | 8.7 | 13.0 | 0.00 | 0.22 | 0.00 | 77 | 1011.4 |
| 20260508111014 | 66 | 122 | 7.8 | 14.8 | 0.00 | 0.22 | 0.00 | 77 | 1011.4 |
| 20260508110511 | 66 | 108 | 9.6 | 14.8 | 0.00 | 0.22 | 0.00 | 77 | 1011.2 |
| 20260508110012 | 66 | 360 | 6.1 | 13.0 | 0.00 | 0.22 | 0.00 | 78 | 1011.2 |
| 20260508105509 | 66 | 127 | 7.8 | 14.8 | 0.00 | 0.22 | 0.00 | 78 | 1011.2 |
| 20260508105015 | 66 | 131 | 8.7 | 14.8 | 0.00 | 0.22 | 0.00 | 78 | 1011.1 |
| 20260508104508 | 66 | 115 | 8.7 | 14.8 | 0.00 | 0.22 | 0.00 | 79 | 1011.1 |
| 20260508104007 | 66 | 104 | 9.6 | 13.0 | 0.00 | 0.22 | 0.00 | 79 | 1011.0 |
| 20260508103506 | 66 | 111 | 8.7 | 13.0 | 0.00 | 0.22 | 0.00 | 79 | 1010.9 |
| 20260508103006 | 66 | 81 | 8.7 | 13.0 | 0.00 | 0.22 | 0.00 | 79 | 1010.9 |
| 20260508102506 | 66 | 360 | 7.0 | 12.2 | 0.00 | 0.22 | 0.00 | 79 | 1010.9 |
| 20260508102007 | 66 | 106 | 7.8 | 10.4 | 0.00 | 0.22 | 0.00 | 80 | 1010.9 |
| 20260508101504 | 66 | 107 | 6.1 | 9.6 | 0.00 | 0.22 | 0.00 | 80 | 1010.8 |
| 20260508101004 | 67 | 108 | 7.0 | 12.2 | 0.00 | 0.22 | 0.00 | 80 | 1010.9 |
| 20260508100503 | 67 | 106 | 7.0 | 12.2 | 0.00 | 0.22 | 0.00 | 79 | 1010.9 |
| 20260508100003 | 67 | 119 | 6.1 | 11.3 | 0.00 | 0.22 | 0.00 | 79 | 1010.9 |
| 20260508095502 | 67 | 84 | 7.0 | 11.3 | 0.00 | 0.22 | 0.00 | 79 | 1011.0 |
| 20260508095003 | 67 | 360 | 5.2 | 13.0 | 0.00 | 0.22 | 0.00 | 79 | 1010.9 |
| 20260508094500 | 67 | 130 | 7.8 | 13.0 | 0.00 | 0.22 | 0.00 | 79 | 1011.0 |
| 20260508094100 | 67 | 115 | 7.0 | 9.6 | 0.00 | 0.22 | 0.00 | 79 | 1011.0 |
| 20260508093601 | 67 | 360 | 6.1 | 11.3 | 0.00 | 0.22 | 0.00 | 79 | 1010.9 |
| 20260508093105 | 67 | 102 | 7.0 | 12.2 | 0.00 | 0.22 | 0.00 | 79 | 1011.0 |
| 20260508092558 | 67 | 101 | 7.8 | 13.0 | 0.00 | 0.22 | 0.00 | 80 | 1011.0 |
| 20260508092057 | 67 | 132 | 7.0 | 13.0 | 0.00 | 0.22 | 0.00 | 80 | 1011.0 |
| 20260508091611 | 67 | 107 | 6.1 | 12.2 | 0.00 | 0.22 | 0.00 | 80 | 1011.0 |
| 20260508091057 | 67 | 85 | 7.0 | 12.2 | 0.00 | 0.22 | 0.00 | 80 | 1011.0 |
| 20260508090556 | 67 | 107 | 7.0 | 11.3 | 0.00 | 0.22 | 0.00 | 80 | 1011.0 |
| 20260508090105 | 67 | 103 | 7.0 | 11.3 | 0.00 | 0.22 | 0.00 | 80 | 1011.0 |
| 20260508085556 | 67 | 130 | 5.2 | 9.6 | 0.00 | 0.22 | 0.00 | 80 | 1010.9 |
| 20260508085054 | 67 | 360 | 5.2 | 9.6 | 0.00 | 0.22 | 0.00 | 80 | 1011.0 |
| 20260508084553 | 67 | 360 | 5.2 | 8.7 | 0.00 | 0.22 | 0.00 | 80 | 1010.9 |
| 20260508084053 | 67 | 88 | 6.1 | 11.3 | 0.00 | 0.22 | 0.00 | 80 | 1010.9 |
| 20260508083552 | 67 | 98 | 7.0 | 11.3 | 0.00 | 0.22 | 0.00 | 80 | 1011.1 |
| 20260508083102 | 67 | 360 | 6.1 | 9.6 | 0.00 | 0.22 | 0.00 | 80 | 1011.1 |
| 20260508082552 | 67 | 360 | 5.2 | 11.3 | 0.00 | 0.22 | 0.00 | 81 | 1011.1 |
| 20260508082050 | 67 | 360 | 7.0 | 9.6 | 0.00 | 0.22 | 0.00 | 81 | 1011.2 |
| 20260508081551 | 68 | 62 | 6.1 | 9.6 | 0.00 | 0.22 | 0.00 | 80 | 1011.3 |
| 20260508081049 | 67 | 360 | 6.1 | 9.6 | 0.00 | 0.22 | 0.00 | 81 | 1011.3 |
| 20260508080547 | 68 | 360 | 5.2 | 9.6 | 0.00 | 0.22 | 0.00 | 81 | 1011.4 |
| 20260508080047 | 68 | 116 | 5.2 | 11.3 | 0.00 | 0.22 | 0.00 | 81 | 1011.4 |
| 20260508075546 | 68 | 360 | 5.2 | 8.7 | 0.00 | 0.22 | 0.00 | 80 | 1011.5 |
| 20260508075046 | 68 | 360 | 5.2 | 8.7 | 0.00 | 0.22 | 0.00 | 80 | 1011.4 |
| 20260508074545 | 68 | 92 | 5.2 | 10.4 | 0.00 | 0.22 | 0.00 | 80 | 1011.5 |
| 20260508074044 | 68 | 360 | 6.1 | 10.4 | 0.00 | 0.22 | 0.00 | 80 | 1011.6 |
| 20260508073544 | 68 | 88 | 4.3 | 9.6 | 0.00 | 0.22 | 0.00 | 81 | 1011.6 |
| 20260508073048 | 67 | 113 | 3.5 | 8.7 | 0.00 | 0.22 | 0.00 | 82 | 1011.6 |
| 20260508072544 | 68 | 117 | 5.2 | 8.7 | 0.00 | 0.22 | 0.00 | 82 | 1011.6 |
| 20260508072042 | 68 | 360 | 5.2 | 8.7 | 0.00 | 0.22 | 0.00 | 82 | 1011.7 |
| 20260508071544 | 68 | 111 | 5.2 | 9.6 | 0.00 | 0.22 | 0.00 | 81 | 1011.8 |
| 20260508071041 | 68 | 82 | 5.2 | 9.6 | 0.00 | 0.22 | 0.00 | 81 | 1012.1 |
| 20260508070541 | 68 | 94 | 3.5 | 7.8 | 0.00 | 0.22 | 0.00 | 81 | 1012.1 |
| 20260508070040 | 68 | 84 | 4.3 | 7.8 | 0.00 | 0.22 | 0.00 | 82 | 1012.2 |
| 20260508065539 | 68 | 132 | 3.5 | 8.7 | 0.00 | 0.22 | 0.00 | 82 | 1012.3 |
| 20260508065037 | 68 | 119 | 5.2 | 8.7 | 0.00 | 0.22 | 0.00 | 82 | 1012.3 |
| 20260508064538 | 68 | 135 | 6.1 | 8.7 | 0.00 | 0.22 | 0.00 | 82 | 1012.4 |
| 20260508064036 | 68 | 111 | 4.3 | 7.0 | 0.00 | 0.22 | 0.00 | 82 | 1012.5 |
| 20260508063534 | 68 | 129 | 5.2 | 7.0 | 0.00 | 0.22 | 0.00 | 81 | 1012.6 |
| 20260508063033 | 68 | 123 | 2.6 | 7.8 | 0.00 | 0.22 | 0.00 | 81 | 1012.7 |
| 20260508062534 | 68 | 129 | 3.5 | 7.8 | 0.00 | 0.22 | 0.00 | 81 | 1012.8 |
| 20260508062033 | 68 | 127 | 3.5 | 8.7 | 0.00 | 0.22 | 0.00 | 81 | 1012.8 |
| 20260508061534 | 68 | 109 | 5.2 | 11.3 | 0.00 | 0.22 | 0.00 | 81 | 1012.9 |
| 20260508061035 | 68 | 121 | 7.0 | 11.3 | 0.00 | 0.22 | 0.00 | 82 | 1013.0 |
| 20260508060530 | 68 | 144 | 5.2 | 10.4 | 0.00 | 0.22 | 0.00 | 82 | 1013.0 |
| 20260508060030 | 68 | 124 | 5.2 | 12.2 | 0.00 | 0.22 | 0.22 | 82 | 1013.2 |
| 20260508055529 | 68 | 119 | 7.8 | 12.2 | 0.00 | 0.22 | 0.22 | 82 | 1013.3 |
| 20260508055033 | 68 | 103 | 7.0 | 12.2 | 0.00 | 0.22 | 0.22 | 82 | 1013.2 |
| 20260508054529 | 68 | 115 | 5.2 | 11.3 | 0.00 | 0.22 | 0.22 | 82 | 1013.3 |
| 20260508054030 | 68 | 103 | 6.1 | 11.3 | 0.00 | 0.22 | 0.22 | 82 | 1013.4 |
| 20260508053529 | 68 | 98 | 6.1 | 11.3 | 0.00 | 0.22 | 0.22 | 83 | 1013.4 |
| 20260508053031 | 68 | 75 | 5.2 | 13.0 | 0.00 | 0.22 | 0.22 | 83 | 1013.5 |
| 20260508052531 | 68 | 86 | 7.0 | 13.9 | 0.00 | 0.22 | 0.22 | 83 | 1013.6 |
| 20260508052028 | 68 | 106 | 7.8 | 13.9 | 0.00 | 0.22 | 0.22 | 83 | 1013.5 |
| 20260508051531 | 69 | 86 | 8.7 | 13.9 | 0.00 | 0.22 | 0.22 | 82 | 1013.6 |
| 20260508051028 | 69 | 132 | 7.0 | 13.9 | 0.00 | 0.22 | 0.22 | 82 | 1013.8 |
| 20260508050528 | 69 | 90 | 7.0 | 13.0 | 0.00 | 0.22 | 0.22 | 81 | 1013.9 |
| 20260508050029 | 69 | 118 | 7.0 | 12.2 | 0.00 | 0.22 | 0.22 | 81 | 1013.8 |
| 20260508045526 | 69 | 126 | 7.8 | 12.2 | 0.00 | 0.22 | 0.22 | 81 | 1013.9 |
| 20260508045027 | 69 | 117 | 7.0 | 14.8 | 0.00 | 0.22 | 0.22 | 81 | 1013.8 |
| 20260508044526 | 69 | 121 | 9.6 | 14.8 | 0.00 | 0.22 | 0.22 | 81 | 1013.6 |
| 20260508044027 | 68 | 117 | 6.1 | 11.3 | 0.00 | 0.22 | 0.22 | 81 | 1013.8 |
| 20260508043525 | 69 | 113 | 4.3 | 9.6 | 0.00 | 0.22 | 0.22 | 81 | 1013.7 |
| 20260508043026 | 69 | 157 | 5.2 | 10.4 | 0.00 | 0.22 | 0.22 | 81 | 1013.7 |
| 20260508042526 | 69 | 122 | 6.1 | 10.4 | 0.00 | 0.22 | 0.22 | 82 | 1013.8 |
| 20260508042025 | 68 | 140 | 6.1 | 10.4 | 0.00 | 0.22 | 0.22 | 82 | 1013.7 |
| 20260508041525 | 69 | 114 | 5.2 | 11.3 | 0.00 | 0.22 | 0.22 | 82 | 1013.6 |
| 20260508041025 | 69 | 121 | 7.0 | 13.0 | 0.00 | 0.22 | 0.22 | 82 | 1013.6 |
| 20260508040526 | 69 | 90 | 7.8 | 13.0 | 0.00 | 0.22 | 0.22 | 82 | 1013.6 |
| 20260508040024 | 69 | 119 | 5.2 | 10.4 | 0.00 | 0.22 | 0.22 | 82 | 1013.5 |
| 20260508035524 | 69 | 96 | 5.2 | 9.6 | 0.00 | 0.22 | 0.22 | 82 | 1013.5 |
| 20260508035028 | 69 | 99 | 4.3 | 8.7 | 0.00 | 0.22 | 0.22 | 83 | 1013.4 |
| 20260508034530 | 69 | 138 | 3.5 | 9.6 | 0.00 | 0.22 | 0.22 | 83 | 1013.5 |
| 20260508034023 | 69 | 117 | 4.3 | 9.6 | 0.00 | 0.22 | 0.22 | 83 | 1013.5 |
| 20260508033523 | 69 | 122 | 5.2 | 8.7 | 0.00 | 0.22 | 0.22 | 83 | 1013.4 |
| 20260508033023 | 69 | 148 | 5.2 | 11.3 | 0.00 | 0.22 | 0.22 | 83 | 1013.3 |
| 20260508032523 | 69 | 144 | 7.8 | 11.3 | 0.00 | 0.22 | 0.22 | 83 | 1013.4 |
| 20260508032022 | 69 | 123 | 6.1 | 13.0 | 0.00 | 0.22 | 0.22 | 84 | 1013.4 |
| 20260508031525 | 69 | 76 | 6.1 | 13.0 | 0.00 | 0.22 | 0.22 | 84 | 1013.3 |
| 20260508031022 | 69 | 92 | 6.1 | 11.3 | 0.00 | 0.22 | 0.22 | 84 | 1013.3 |
| 20260508030522 | 69 | 140 | 5.2 | 15.6 | 0.00 | 0.22 | 0.22 | 84 | 1013.3 |
| 20260508030022 | 69 | 140 | 7.0 | 15.6 | 0.00 | 0.22 | 0.22 | 83 | 1013.3 |
| 20260508025520 | 69 | 138 | 7.0 | 11.3 | 0.00 | 0.22 | 0.22 | 83 | 1013.3 |
| 20260508025021 | 69 | 123 | 5.2 | 16.5 | 0.00 | 0.22 | 0.22 | 83 | 1013.2 |
| 20260508024523 | 70 | 108 | 7.8 | 16.5 | 0.00 | 0.22 | 0.22 | 82 | 1013.2 |
| 20260508024020 | 70 | 138 | 7.0 | 10.4 | 0.00 | 0.22 | 0.22 | 82 | 1013.1 |
| 20260508023520 | 69 | 107 | 5.2 | 14.8 | 0.00 | 0.22 | 0.22 | 83 | 1012.9 |
| 20260508023019 | 69 | 140 | 7.8 | 14.8 | 0.00 | 0.22 | 0.22 | 83 | 1012.9 |
| 20260508022520 | 69 | 167 | 6.1 | 11.3 | 0.00 | 0.22 | 0.22 | 84 | 1012.8 |
| 20260508022019 | 69 | 189 | 5.2 | 11.3 | 0.00 | 0.22 | 0.22 | 84 | 1012.8 |
| 20260508021518 | 69 | 111 | 3.5 | 12.2 | 0.00 | 0.22 | 0.22 | 84 | 1012.8 |
| 20260508021018 | 70 | 134 | 6.1 | 12.2 | 0.00 | 0.22 | 0.22 | 83 | 1012.8 |
| 20260508020519 | 70 | 153 | 3.5 | 13.0 | 0.00 | 0.22 | 0.22 | 82 | 1012.7 |
| 20260508020022 | 70 | 95 | 6.1 | 15.6 | 0.00 | 0.22 | 0.22 | 82 | 1012.7 |
| 20260508015518 | 70 | 105 | 9.6 | 15.6 | 0.00 | 0.22 | 0.22 | 82 | 1012.6 |
| 20260508015018 | 70 | 76 | 8.7 | 20.0 | 0.00 | 0.22 | 0.22 | 81 | 1012.6 |
| 20260508014518 | 70 | 92 | 9.6 | 20.0 | 0.00 | 0.22 | 0.22 | 81 | 1012.6 |
| 20260508014017 | 70 | 127 | 6.1 | 12.2 | 0.00 | 0.22 | 0.22 | 81 | 1012.4 |
| 20260508013518 | 71 | 67 | 7.8 | 12.2 | 0.00 | 0.22 | 0.22 | 81 | 1012.6 |
| 20260508013017 | 71 | 92 | 6.1 | 10.4 | 0.00 | 0.22 | 0.22 | 80 | 1012.5 |
| 20260508012516 | 71 | 105 | 4.3 | 10.4 | 0.00 | 0.22 | 0.22 | 80 | 1012.6 |
| 20260508012018 | 71 | 98 | 7.0 | 10.4 | 0.00 | 0.22 | 0.22 | 79 | 1012.5 |
| 20260508011515 | 71 | 98 | 5.2 | 10.4 | 0.00 | 0.22 | 0.22 | 80 | 1012.6 |
| 20260508011016 | 71 | 97 | 2.6 | 10.4 | 0.00 | 0.22 | 0.22 | 80 | 1012.5 |
| 20260508010515 | 71 | 96 | 5.2 | 11.3 | 0.00 | 0.22 | 0.22 | 80 | 1012.5 |
| 20260508010015 | 71 | 113 | 6.1 | 9.6 | 0.00 | 0.22 | 0.22 | 81 | 1012.5 |
| 20260508005515 | 71 | 133 | 5.2 | 8.7 | 0.00 | 0.22 | 0.22 | 81 | 1012.5 |
| 20260508005015 | 71 | 122 | 4.3 | 7.0 | 0.00 | 0.22 | 0.22 | 82 | 1012.6 |
| 20260508004515 | 70 | 116 | 4.3 | 7.8 | 0.00 | 0.22 | 0.22 | 83 | 1012.6 |
| 20260508004018 | 70 | 107 | 3.5 | 7.8 | 0.00 | 0.22 | 0.22 | 85 | 1012.7 |
| 20260508003516 | 70 | 66 | 1.7 | 3.5 | 0.00 | 0.22 | 0.22 | 88 | 1012.6 |
| 20260508003015 | 70 | 175 | 0.0 | 2.6 | 0.00 | 0.22 | 0.22 | 89 | 1012.6 |
| 20260508002514 | 70 | 189 | 0.9 | 2.6 | 0.00 | 0.22 | 0.22 | 89 | 1012.5 |
| 20260508002014 | 70 | 199 | 0.0 | 1.7 | 0.00 | 0.22 | 0.22 | 89 | 1012.6 |
| 20260508001514 | 70 | 323 | 0.0 | 0.0 | 0.00 | 0.22 | 0.22 | 88 | 1012.5 |
| 20260508001015 | 70 | 323 | 0.0 | 0.0 | 0.00 | 0.22 | 0.22 | 88 | 1012.5 |
| 20260508000514 | 70 | 323 | 0.0 | 0.9 | 0.00 | 0.22 | 0.22 | 88 | 1012.4 |
| 20260508000014 | 70 | 323 | 0.0 | 0.9 | 0.00 | 0.22 | 0.22 | 88 | 1012.3 |
| 20260507235518 | 70 | 305 | 0.0 | 1.7 | 0.00 | 0.22 | 0.22 | 87 | 1012.4 |
| 20260507235012 | 70 | 300 | 0.0 | 2.6 | 0.00 | 0.22 | 0.22 | 87 | 1012.5 |
| 20260507234513 | 71 | 268 | 0.0 | 0.0 | 0.00 | 0.22 | 0.22 | 87 | 1012.6 |
| 20260507234012 | 71 | 268 | 0.0 | 3.5 | 0.00 | 0.22 | 0.22 | 87 | 1012.6 |
| 20260507233512 | 71 | 257 | 0.0 | 3.5 | 0.00 | 0.22 | 0.22 | 87 | 1012.4 |
| 20260507233012 | 71 | 251 | 1.7 | 2.6 | 0.00 | 0.22 | 0.22 | 87 | 1012.4 |
| 20260507232514 | 71 | 275 | 0.0 | 0.0 | 0.00 | 0.22 | 0.22 | 87 | 1012.3 |
| 20260507232011 | 71 | 275 | 0.0 | 1.7 | 0.00 | 0.22 | 0.22 | 86 | 1012.2 |
| 20260507231513 | 71 | 275 | 0.0 | 3.5 | 0.00 | 0.22 | 0.22 | 86 | 1012.2 |
| 20260507231012 | 71 | 267 | 0.9 | 3.5 | 0.00 | 0.22 | 0.22 | 86 | 1012.1 |
| 20260507230511 | 71 | 262 | 0.9 | 1.7 | 0.00 | 0.22 | 0.22 | 86 | 1012.1 |
| 20260507230011 | 71 | 267 | 0.0 | 0.9 | 0.00 | 0.22 | 0.22 | 86 | 1012.1 |
| 20260507225511 | 71 | 239 | 0.0 | 1.7 | 0.00 | 0.22 | 0.22 | 86 | 1012.0 |
| 20260507225011 | 71 | 241 | 0.0 | 1.7 | 0.00 | 0.22 | 0.22 | 86 | 1011.8 |
| 20260507224516 | 72 | 255 | 0.9 | 3.5 | 0.00 | 0.22 | 0.22 | 85 | 1011.8 |
| 20260507224011 | 72 | 265 | 0.9 | 3.5 | 0.00 | 0.22 | 0.22 | 85 | 1011.9 |
| 20260507223510 | 72 | 259 | 0.9 | 6.1 | 0.00 | 0.22 | 0.22 | 84 | 1011.9 |
| 20260507223010 | 72 | 287 | 1.7 | 6.1 | 0.00 | 0.22 | 0.22 | 83 | 1011.7 |
| 20260507222509 | 73 | 262 | 1.7 | 4.3 | 0.00 | 0.22 | 0.22 | 82 | 1011.5 |
| 20260507222010 | 72 | 225 | 1.7 | 3.5 | 0.00 | 0.22 | 0.22 | 81 | 1011.4 |
| 20260507221512 | 72 | 201 | 0.9 | 2.6 | 0.00 | 0.22 | 0.22 | 80 | 1011.4 |
| 20260507221009 | 72 | 229 | 0.0 | 4.3 | 0.00 | 0.22 | 0.22 | 81 | 1011.5 |
| 20260507220509 | 72 | 268 | 2.6 | 4.3 | 0.00 | 0.22 | 0.22 | 81 | 1011.5 |
| 20260507220009 | 71 | 254 | 0.9 | 3.5 | 0.00 | 0.22 | 0.22 | 83 | 1011.8 |
| 20260507215508 | 71 | 263 | 0.9 | 4.3 | 0.00 | 0.22 | 0.22 | 83 | 1011.6 |
| 20260507215007 | 71 | 296 | 1.7 | 4.3 | 0.00 | 0.22 | 0.22 | 81 | 1011.7 |
| 20260507214520 | 71 | 274 | 1.7 | 3.5 | 0.02 | 0.22 | 0.22 | 79 | 1011.6 |
| 20260507214008 | 71 | 286 | 0.9 | 3.5 | 0.04 | 0.22 | 0.22 | 80 | 1011.5 |
| 20260507213507 | 71 | 309 | 0.9 | 3.5 | 0.21 | 0.22 | 0.22 | 81 | 1011.3 |
| 20260507213006 | 70 | 300 | 1.7 | 3.5 | 0.22 | 0.22 | 0.22 | 86 | 1011.3 |
| 20260507212508 | 70 | 314 | 0.0 | 3.5 | 0.22 | 0.22 | 0.22 | 88 | 1011.2 |
| 20260507212007 | 69 | 336 | 0.9 | 5.2 | 0.22 | 0.22 | 0.22 | 88 | 1011.2 |
| 20260507211512 | 69 | 68 | 0.9 | 9.6 | 0.22 | 0.22 | 0.22 | 89 | 1011.3 |
| 20260507211006 | 69 | 308 | 3.5 | 9.6 | 0.22 | 0.22 | 0.22 | 89 | 1011.3 |
| 20260507210509 | 68 | 335 | 0.9 | 3.5 | 0.22 | 0.22 | 0.22 | 89 | 1011.2 |
| 20260507210006 | 68 | 342 | 0.9 | 4.3 | 0.22 | 0.28 | 0.22 | 90 | 1011.2 |
| 20260507205508 | 68 | 55 | 1.7 | 10.4 | 0.22 | 0.28 | 0.22 | 89 | 1011.3 |
| 20260507205007 | 68 | 307 | 2.6 | 10.4 | 0.22 | 0.28 | 0.22 | 89 | 1011.4 |
| 20260507204505 | 68 | 292 | 1.7 | 8.7 | 0.20 | 0.26 | 0.20 | 88 | 1011.5 |
| 20260507204006 | 69 | 306 | 3.5 | 11.3 | 0.18 | 0.24 | 0.18 | 86 | 1011.5 |
| 20260507203507 | 71 | 329 | 5.2 | 11.3 | 0.01 | 0.07 | 0.01 | 82 | 1011.7 |
| 20260507203004 | 73 | 327 | 4.3 | 9.6 | 0.00 | 0.06 | 0.00 | 81 | 1011.2 |
| 20260507202504 | 74 | 317 | 4.3 | 11.3 | 0.00 | 0.06 | 0.00 | 86 | 1011.1 |
| 20260507202003 | 74 | 225 | 2.6 | 11.3 | 0.00 | 0.06 | 0.00 | 86 | 1010.9 |
| 20260507201504 | 74 | 288 | 3.5 | 11.3 | 0.00 | 0.06 | 0.00 | 85 | 1011.1 |
| 20260507201003 | 74 | 273 | 7.0 | 11.3 | 0.00 | 0.06 | 0.00 | 85 | 1011.1 |
| 20260507200503 | 74 | 261 | 5.2 | 11.3 | 0.00 | 0.06 | 0.00 | 85 | 1011.2 |
| 20260507200003 | 75 | 248 | 3.5 | 10.4 | 0.00 | 0.06 | 0.00 | 85 | 1011.1 |
| 20260507195503 | 75 | 293 | 6.1 | 13.0 | 0.00 | 0.06 | 0.00 | 84 | 1011.0 |
| 20260507195003 | 75 | 228 | 6.1 | 13.0 | 0.00 | 0.06 | 0.00 | 84 | 1011.5 |
| 20260507194501 | 75 | 277 | 3.5 | 11.3 | 0.00 | 0.06 | 0.00 | 83 | 1011.0 |
| 20260507194100 | 76 | 266 | 5.2 | 11.3 | 0.00 | 0.06 | 0.00 | 83 | 1011.2 |
| 20260507193559 | 76 | 295 | 4.3 | 9.6 | 0.00 | 0.06 | 0.00 | 82 | 1011.4 |
| 20260507193058 | 77 | 270 | 4.3 | 9.6 | 0.00 | 0.06 | 0.00 | 81 | 1011.6 |
| 20260507192557 | 78 | 308 | 6.1 | 11.3 | 0.00 | 0.06 | 0.00 | 80 | 1011.8 |
| 20260507192057 | 78 | 279 | 3.5 | 12.2 | 0.00 | 0.06 | 0.00 | 79 | 1011.7 |
| 20260507191557 | 79 | 304 | 5.2 | 12.2 | 0.00 | 0.06 | 0.00 | 77 | 1011.7 |
| 20260507191056 | 79 | 309 | 3.5 | 13.0 | 0.00 | 0.06 | 0.00 | 76 | 1011.8 |
| 20260507190557 | 79 | 293 | 7.0 | 13.0 | 0.00 | 0.06 | 0.00 | 75 | 1011.8 |
| 20260507190059 | 81 | 300 | 3.5 | 8.7 | 0.00 | 0.06 | 0.00 | 72 | 1011.9 |
| 20260507185556 | 83 | 237 | 2.6 | 8.7 | 0.00 | 0.06 | 0.00 | 55 | 1012.1 |
| 20260507185055 | 84 | 313 | 1.7 | 3.5 | 0.00 | 0.06 | 0.00 | 54 | 1012.0 |
| 20260507184557 | 84 | 92 | 0.9 | 3.5 | 0.00 | 0.06 | 0.00 | 55 | 1012.3 |
| 20260507184056 | 83 | 74 | 0.9 | 8.7 | 0.00 | 0.06 | 0.00 | 55 | 1012.2 |
| 20260507183554 | 83 | 84 | 5.2 | 8.7 | 0.00 | 0.06 | 0.00 | 57 | 1012.4 |
| 20260507183052 | 82 | 82 | 4.3 | 12.2 | 0.00 | 0.06 | 0.00 | 58 | 1012.4 |
| 20260507182556 | 82 | 104 | 5.2 | 12.2 | 0.00 | 0.06 | 0.00 | 59 | 1012.5 |